カタログに戻る

YAOGAN 4 DEB

運用中軍事PO
NORAD 35575·DEBRIS·🇨🇳 China

打ち上げ Dec 1, 2008 から Jiuquan Satellite Launch Center

Loading…

次のパス (今後24時間)

TLE

最新Source: Space-Track

元期: Sep 13, 2026, 08:01 UTC

1 35575U 08061B   26256.33433370  .00001126  00000-0  32686-3 0  9995
2 35575  97.7667  31.9030 0206851 274.6149  83.1440 14.34471792920137

AllMySatでYAOGAN 4 DEBをリアルタイム追跡

Download on the App Store